Lake Placid Elementary School FL US WEATHERSTEM current weather conditions

sailwx.info

Wind from 254 at 6 knots gusting 10

Air temperature 21.8° C
Dewpoint 20.1° C

Last reported at 2019-Dec-14 14:50 UTC.
Time now 2019-Dec-14 15:18 UTC

Location: N 27°18' W 081°22'.
View on Google Maps.

See reports from other nearby stations

  
Tides and Currents Weather Stations Pressure Air Temp Water Temp Dewpoint Dewpoint Depression Visibility Wind Speed Wind Dir Waves Ship Positions
date/time (UTC)wind fromknots sea level pressurealtimeterstation pressurevisibilityair tempwater tempwave heightnotes
2019-Dec-14 14:50 254 6 gusting 10 21.8
2019-Dec-14 14:40 237 5 gusting 14 21.8
2019-Dec-14 14:30 214 8 gusting 18 22.1
2019-Dec-14 14:20 278 15 gusting 19 22.9
2019-Dec-14 14:10 267 13 gusting 19 23.3
2019-Dec-14 14:00 249 6 gusting 12 23.1
2019-Dec-14 13:40 233 5 gusting 15 23.3
2019-Dec-14 13:30 234 10 gusting 10 23.3
2019-Dec-14 13:20 271 6 gusting 14 23.3
2019-Dec-14 13:10 223 4 gusting 12 23.1
2019-Dec-14 13:00 249 6 gusting 12 22.7
2019-Dec-14 12:50 145 7 gusting 11 22.4
2019-Dec-14 12:40 213 5 gusting 11 22.0
2019-Dec-14 12:30 241 2 gusting 10 21.8
2019-Dec-14 12:20 192 3 gusting 6 21.6
2019-Dec-14 12:10 249 2 gusting 6 21.5
2019-Dec-14 12:00 179 4 gusting 8 21.4
2019-Dec-14 11:50 229 3 gusting 7 21.4
2019-Dec-14 11:40 202 2 gusting 8 21.4
2019-Dec-14 11:30 211 5 gusting 9 21.4
2019-Dec-14 11:20 226 3 gusting 7 21.3
2019-Dec-14 10:50 242 4 gusting 9 21.2
2019-Dec-14 10:30 236 2 gusting 9 21.3
2019-Dec-14 10:20 213 3 gusting 8 21.4
2019-Dec-14 10:10 238 2 gusting 6 21.3
2019-Dec-14 10:00 220 4 gusting 7 21.3
2019-Dec-14 09:50 221 5 gusting 7 21.3
2019-Dec-14 09:40 242 6 gusting 6 21.3
2019-Dec-14 09:30 239 0 gusting 7 21.3
2019-Dec-14 09:20 193 0 gusting 6 21.2
2019-Dec-14 09:00 271 3 gusting 6 21.2
2019-Dec-14 08:50 230 5 gusting 6 21.2
2019-Dec-14 08:40 210 3 gusting 6 21.1
2019-Dec-14 08:30 229 2 gusting 6 21.1
2019-Dec-14 08:20 207 3 gusting 6 21.1
2019-Dec-14 08:10 180 2 gusting 8 21.0
2019-Dec-14 08:00 225 3 gusting 6 20.9
2019-Dec-14 07:50 180 2 gusting 6 20.9
2019-Dec-14 07:40 198 2 gusting 8 20.9
2019-Dec-14 07:30 223 2 gusting 7 20.9
2019-Dec-14 07:20 250 1 gusting 6 20.9
2019-Dec-14 07:10 259 2 gusting 8 20.9
2019-Dec-14 07:00 180 2 gusting 6 21.0
2019-Dec-14 06:50 197 3 gusting 5 21.1
2019-Dec-14 06:40 189 1 gusting 6 21.2
2019-Dec-14 06:30 227 0 gusting 6 21.2
2019-Dec-14 06:20 257 2 gusting 7 21.2
2019-Dec-14 06:10 240 3 gusting 7 21.3
2019-Dec-14 06:00 240 1 gusting 6 21.3
2019-Dec-14 05:50 256 4 gusting 9 21.3
2019-Dec-14 05:40 240 2 gusting 9 21.4
2019-Dec-14 05:30 243 4 gusting 10 21.4
2019-Dec-14 05:20 227 2 gusting 7 21.4
2019-Dec-14 05:10 194 2 gusting 6 21.3
2019-Dec-14 05:00 171 4 gusting 8 21.1
2019-Dec-14 04:50 187 3 gusting 5 20.9
2019-Dec-14 04:40 213 1 gusting 5 20.9
2019-Dec-14 04:30 194 2 gusting 5 20.9
2019-Dec-14 04:20 200 2 gusting 5 20.9
2019-Dec-14 04:10 196 0 gusting 6 20.9
2019-Dec-14 04:00 177 1 gusting 4 21.1
2019-Dec-14 03:50 182 1 gusting 4 21.1
2019-Dec-14 03:40 183 1 gusting 5 21.1
2019-Dec-14 03:20 188 3 gusting 6 21.1
2019-Dec-14 03:10 170 3 gusting 6 21.1
2019-Dec-14 03:00 183 2 gusting 7 21.1
2019-Dec-14 02:50 169 6 gusting 10 20.8
2019-Dec-14 02:40 247 0 gusting 3 20.7
2019-Dec-14 02:30 246 2 gusting 3 20.6
2019-Dec-14 02:20 227 0 gusting 1 20.7
2019-Dec-14 02:10 226 0 gusting 1 20.9
2019-Dec-14 02:00 213 0 gusting 1 20.9
2019-Dec-14 01:50 229 0 gusting 2 21.0
2019-Dec-14 01:40 236 1 gusting 2 21.1
2019-Dec-14 01:30 242 2 gusting 2 21.2
2019-Dec-14 01:20 187 0 gusting 3 21.3
2019-Dec-14 01:10 231 1 gusting 3 21.4
2019-Dec-14 01:00 177 1 gusting 3 21.6
2019-Dec-14 00:50 171 3 gusting 4 21.6
2019-Dec-14 00:40 190 1 gusting 4 21.6
2019-Dec-14 00:30 250 2 gusting 5 21.8
2019-Dec-14 00:20 165 4 gusting 6 22.0
2019-Dec-14 00:10 190 1 gusting 5 22.1
2019-Dec-14 00:00 171 4 gusting 7 22.2
2019-Dec-13 23:50 180 5 gusting 6 22.2
2019-Dec-13 23:40 162 4 gusting 6 22.3
2019-Dec-13 23:30 175 5 gusting 5 22.4
2019-Dec-13 23:20 184 1 gusting 4 22.4
2019-Dec-13 23:10 180 3 gusting 5 22.5
2019-Dec-13 23:00 196 2 gusting 5 22.3
2019-Dec-13 22:50 180 0 gusting 3 22.4
2019-Dec-13 22:40 222 3 gusting 4 22.5
2019-Dec-13 22:30 185 0 gusting 3 22.6
2019-Dec-13 22:20 239 1 gusting 3 22.7
2019-Dec-13 22:10 224 0 gusting 3 22.8
2019-Dec-13 22:00 228 1 gusting 4 22.9
2019-Dec-13 21:50 231 1 gusting 4 23.1
2019-Dec-13 21:40 219 1 gusting 5 23.2
2019-Dec-13 21:30 203 1 gusting 6 23.3
2019-Dec-13 21:20 222 1 gusting 3 23.4
2019-Dec-13 21:10 218 0 gusting 3 23.4
2019-Dec-13 21:00 232 2 gusting 8 23.4
2019-Dec-13 20:50 273 3 gusting 6 22.9
2019-Dec-13 20:40 267 1 gusting 4 22.9
2019-Dec-13 20:30 246 2 gusting 3 22.8
2019-Dec-13 20:20 258 1 gusting 2 22.9
2019-Dec-13 20:10 316 0 gusting 1 22.2
2019-Dec-13 20:00 316 22.0
2019-Dec-13 19:50 284 3 gusting 19 21.8
2019-Dec-13 19:40 244 4 gusting 6 25.3
2019-Dec-13 19:30 219 1 gusting 6 25.7
2019-Dec-13 19:20 207 1 gusting 6 25.7
2019-Dec-13 19:10 242 3 gusting 7 25.6
2019-Dec-13 19:00 235 3 gusting 6 25.6
2019-Dec-13 18:50 254 3 gusting 6 25.7
2019-Dec-13 18:40 234 5 gusting 6 25.3
2019-Dec-13 18:30 240 0 gusting 6 25.3
2019-Dec-13 18:20 261 2 gusting 6 25.3
2019-Dec-13 18:10 269 0 gusting 6 25.3
2019-Dec-13 18:00 150 2 gusting 5 25.4
2019-Dec-13 17:50 238 1 gusting 6 25.2
2019-Dec-13 17:40 225 1 gusting 7 25.2
2019-Dec-13 17:30 192 1 gusting 6 25.2
2019-Dec-13 17:20 249 0 gusting 6 25.1
2019-Dec-13 17:10 186 2 gusting 8 25.0
2019-Dec-13 17:00 171 6 gusting 8 25.0
2019-Dec-13 16:50 177 2 gusting 6 25.1
2019-Dec-13 16:40 184 3 gusting 6 24.9
2019-Dec-13 16:30 177 2 gusting 6 24.7
2019-Dec-13 16:20 159 4 gusting 5 24.2
2019-Dec-13 16:10 181 3 gusting 4 23.9
2019-Dec-13 16:00 184 2 gusting 4 23.6
2019-Dec-13 15:50 162 0 gusting 4 23.3
2019-Dec-13 15:40 183 1 gusting 2 23.1
2019-Dec-13 15:30 173 1 gusting 2 22.8
2019-Dec-13 15:20 22.5
2019-Dec-13 15:10 156 1 gusting 6 22.4
2019-Dec-13 15:00 177 2 gusting 3 22.2
2019-Dec-13 14:50 178 0 gusting 3 22.1
2019-Dec-13 14:40 158 0 gusting 2 22.1
2019-Dec-13 14:30 141 0 gusting 2 21.7
2019-Dec-13 14:20 140 1 gusting 3 21.5
2019-Dec-13 14:10 144 1 gusting 4 21.3
2019-Dec-13 14:00 154 1 gusting 2 21.1
2019-Dec-13 13:50 175 20.9
2019-Dec-13 13:40 124 20.9
2019-Dec-13 13:30 167 20.9
2019-Dec-13 13:20 130 0 gusting 1 20.7
2019-Dec-13 13:10 130 1 gusting 2 20.6
2019-Dec-13 13:00 105 0 gusting 3 20.4
2019-Dec-13 12:50 079 0 gusting 5 20.3
2019-Dec-13 12:40 103 1 gusting 5 20.3
2019-Dec-13 12:30 092 2 gusting 5 20.2
2019-Dec-13 12:20 087 3 gusting 5 20.3
2019-Dec-13 12:10 099 2 gusting 5 20.2
2019-Dec-13 12:00 094 2 gusting 5 20.2
2019-Dec-13 11:40 069 4 gusting 5 20.1
2019-Dec-13 11:30 091 2 gusting 5 20.1
2019-Dec-13 11:20 082 2 gusting 6 20.1
2019-Dec-13 11:10 090 1 gusting 3 20.1
2019-Dec-13 11:00 20.1
2019-Dec-13 10:50 076 0 gusting 4 20.0
2019-Dec-13 10:40 086 1 gusting 2 19.9
2019-Dec-13 10:30 113 0 gusting 1 19.8
2019-Dec-13 10:10 032 2 gusting 2 19.8
2019-Dec-13 10:00 074 0 gusting 2 19.8
2019-Dec-13 09:50 075 1 gusting 4 19.9
2019-Dec-13 09:40 078 1 gusting 3 19.9
2019-Dec-13 09:30 089 1 gusting 2 19.9
2019-Dec-13 09:20 078 0 gusting 2 19.9
2019-Dec-13 09:10 075 0 gusting 2 19.9
2019-Dec-13 08:50 067 0 gusting 1 20.0
2019-Dec-13 08:40 19.8
2019-Dec-13 08:30 018 0 gusting 1 19.8
2019-Dec-13 08:20 19.9
2019-Dec-13 08:10 018 1 gusting 1 19.9
2019-Dec-13 08:00 20.0
2019-Dec-13 07:50 018 0 gusting 1 20.0
2019-Dec-13 07:40 20.2
2019-Dec-13 07:30 20.2
2019-Dec-13 07:20 088 1 gusting 3 20.2
2019-Dec-13 07:00 104 1 gusting 6 20.2
2019-Dec-13 06:50 074 1 gusting 5 20.2
2019-Dec-13 06:40 080 2 gusting 4 20.1
2019-Dec-13 06:30 039 0 gusting 6 20.1
2019-Dec-13 06:20 078 1 gusting 6 20.0
2019-Dec-13 06:10 072 4 gusting 9 20.1
2019-Dec-13 06:00 064 3 gusting 9 20.2
2019-Dec-13 05:50 027 1 gusting 7 20.2
2019-Dec-13 05:40 022 2 gusting 6 20.2
2019-Dec-13 05:30 078 1 gusting 5 20.2
2019-Dec-13 05:20 045 1 gusting 3 20.2
2019-Dec-13 05:00 076 4 gusting 5 20.2
2019-Dec-13 04:50 065 2 gusting 6 20.2
2019-Dec-13 04:40 030 3 gusting 6 20.2
2019-Dec-13 04:30 022 1 gusting 5 20.3
2019-Dec-13 04:20 035 2 gusting 4 20.4
2019-Dec-13 04:10 035 1 gusting 6 20.4
2019-Dec-13 04:00 040 2 gusting 6 20.6
2019-Dec-13 03:50 061 1 gusting 5 20.8
2019-Dec-13 03:40 076 1 gusting 6 20.8
2019-Dec-13 03:30 076 2 gusting 6 20.9
2019-Dec-13 03:20 115 2 gusting 6 20.9
2019-Dec-13 03:10 090 2 gusting 5 21.1
2019-Dec-13 03:00 124 3 gusting 6 21.1
2019-Dec-13 02:50 121 2 gusting 8 21.2
2019-Dec-13 02:40 123 6 gusting 9 21.1
2019-Dec-13 02:30 128 6 gusting 10 20.8
2019-Dec-13 02:20 112 6 gusting 11 20.7
2019-Dec-13 02:10 133 6 gusting 11 20.6
2019-Dec-13 02:00 135 6 gusting 10 20.6
2019-Dec-13 01:50 111 7 gusting 13 20.5
2019-Dec-13 01:40 115 6 gusting 12 20.6
2019-Dec-13 01:30 110 7 gusting 9 20.5
2019-Dec-13 01:20 102 6 gusting 7 20.6
2019-Dec-13 01:10 103 5 gusting 6 20.6
2019-Dec-13 01:00 022 2 gusting 9 20.6
2019-Dec-13 00:50 068 4 gusting 7 20.6
2019-Dec-13 00:40 088 6 gusting 7 20.6
2019-Dec-13 00:30 078 4 gusting 7 20.6
2019-Dec-13 00:20 088 3 gusting 11 20.5
2019-Dec-13 00:10 087 7 gusting 11 20.6
2019-Dec-13 00:00 090 6 gusting 9 20.6
2019-Dec-12 23:50 079 6 gusting 13 20.7
2019-Dec-12 23:40 092 5 gusting 11 20.6
2019-Dec-12 23:30 133 4 gusting 13 20.7
2019-Dec-12 23:10 104 6 gusting 13 20.9
2019-Dec-12 23:00 080 3 gusting 12 21.1
2019-Dec-12 22:50 105 6 gusting 16 21.1
2019-Dec-12 22:40 099 6 gusting 13 21.2
2019-Dec-12 22:30 094 5 gusting 14 21.2
2019-Dec-12 22:20 080 6 gusting 13 21.3
2019-Dec-12 22:10 086 6 gusting 13 21.4
2019-Dec-12 22:00 101 7 gusting 14 21.6
2019-Dec-12 21:50 074 4 gusting 13 21.8
2019-Dec-12 21:40 109 8 gusting 16 22.1
2019-Dec-12 21:30 098 11 gusting 14 22.3
2019-Dec-12 21:20 084 6 gusting 14 22.4
2019-Dec-12 21:10 066 6 gusting 12 22.6
2019-Dec-12 21:00 095 9 gusting 12 22.6
2019-Dec-12 20:50 090 5 gusting 12 22.6
2019-Dec-12 20:40 081 7 gusting 10 22.8
2019-Dec-12 20:30 025 4 gusting 10 22.6
2019-Dec-12 20:20 044 4 gusting 12 22.7
2019-Dec-12 20:10 067 1 gusting 9 23.4
2019-Dec-12 20:00 028 5 gusting 11 23.1
2019-Dec-12 19:50 064 3 gusting 12 22.9
2019-Dec-12 19:40 078 8 gusting 12 23.2
2019-Dec-12 19:30 038 6 gusting 14 23.3
2019-Dec-12 19:20 039 5 gusting 13 23.4
2019-Dec-12 19:10 025 11 gusting 11 23.6
2019-Dec-12 19:00 026 5 gusting 11 23.2
2019-Dec-12 18:50 067 5 gusting 12 23.1
2019-Dec-12 18:40 049 4 gusting 13 22.8
2019-Dec-12 18:30 084 8 gusting 13 23.1
2019-Dec-12 18:20 096 6 gusting 13 22.9
2019-Dec-12 18:10 089 3 gusting 9 22.8
2019-Dec-12 18:00 355 4 gusting 12 22.9
2019-Dec-12 17:50 075 4 gusting 11 23.1
2019-Dec-12 17:40 035 2 gusting 12 23.1
2019-Dec-12 17:30 039 2 gusting 9 23.1
2019-Dec-12 17:20 051 3 gusting 9 22.7
2019-Dec-12 17:10 355 7 gusting 10 22.1
2019-Dec-12 17:00 054 3 gusting 16 21.9
2019-Dec-12 16:50 112 10 gusting 12 22.2
2019-Dec-12 16:40 089 8 gusting 9 22.5
2019-Dec-12 16:30 036 4 gusting 11 22.6
2019-Dec-12 16:20 071 1 gusting 12 22.3
2019-Dec-12 16:10 081 2 gusting 9 22.3
2019-Dec-12 16:00 019 2 gusting 10 22.4
2019-Dec-12 15:50 025 4 gusting 12 22.6
2019-Dec-12 15:40 040 3 gusting 13 22.5
2019-Dec-12 15:30 016 6 gusting 13 22.9
2019-Dec-12 15:20 040 2 gusting 8 22.9
2019-Dec-12 15:10 094 5 gusting 11 23.0
2019-Dec-12 15:00 060 6 gusting 11 22.9